DateTime,Index
2002071400,0.0
2002071406,0.0
2002071412,0.0
2002071418,2025.0
2002071500,6400.0
2002071506,7225.0
2002071512,8100.0
2002071518,9025.0
2002071600,11025.0
2002071606,13225.0
2002071612,13225.0
2002071618,15625.0
2002071700,15625.0
2002071706,15625.0
2002071712,15625.0
2002071718,15625.0
2002071800,16900.0
2002071806,18225.0
2002071812,18225.0
2002071818,18225.0
2002071900,19600.0
2002071906,19600.0
2002071912,19600.0
2002071918,19600.0
2002072000,19600.0
2002072006,19600.0
2002072012,18225.0
2002072018,19600.0
2002072100,19600.0
2002072106,19600.0
2002072112,21025.0
2002072118,19600.0
2002072200,19600.0
2002072206,18225.0
2002072212,16900.0
2002072218,16900.0
2002072300,14400.0
2002072306,12100.0
2002072312,9025.0
2002072318,7225.0
2002072400,6400.0
2002072406,5625.0
2002072412,4900.0
2002072418,4225.0
2002072500,4225.0
2002072506,3600.0
2002072512,3025.0
2002072518,3025.0
2002072600,2500.0
2002072606,2025.0
2002072612,2025.0
2002072618,1225.0
2002072700,0.0
2002072706,0.0
